Regional Weather Roundup
Issued by NWS

Home | Current Version | Previous Version | Text Only | Print | Product List | Glossary On
Versions: 1 2 3 4 5 6 7 8 9 10 11 12 13 14 15 16 17 18 19 20 21 22 23 24 25 26 27 28 29 30 31 32 33 34 35 36 37 38 39 40 41 42 43 44 45 46 47 48 49 50
000
ASUS43 KFSD 040402
RWRSD

WEATHER ROUNDUP FOR SOUTH DAKOTA
NATIONAL WEATHER SERVICE SIOUX FALLS SD
1100 PM CDT THU SEP 03 2015

NOTE: "FAIR" INDICATES FEW OR NO CLOUDS BELOW 12,000 FEET WITH NO
SIGNIFICANT WEATHER AND/OR OBSTRUCTIONS TO VISIBILITY.


SDZ001>005-009-010-012>017-040500-
NORTHWEST AND NORTH CENTRAL SOUTH DAKOTA

CITY           SKY/WX    TMP DP  RH WIND       PRES   REMARKS
BUFFALO          N/A     72  51  47 E7        29.68S
MOBRIDGE       MOCLDY    76  72  87 E3        29.72S
$$

SDZ012>016-024>037-041>051-057-063-072>074-040500-
SOUTHWEST AND SOUTH CENTRAL SOUTH DAKOTA

CITY           SKY/WX    TMP DP  RH WIND       PRES   REMARKS
RAPID CTY ARPT CLOUDY    79  50  36 S13       29.78S
PIERRE         CLOUDY    79  71  76 E10       29.70S
CUSTER         CLOUDY    72  44  36 S16G26    29.97S
PHILIP         LGT RAIN  86  49  27 SE8G24    29.71F
PINE RIDGE     CLOUDY    80  48  32 S8        29.83S
WINNER         FAIR      80  67  64 SE10      29.73F
$$

SDZ004>011-016>023-039-040-040500-
NORTHEAST SOUTH DAKOTA

CITY           SKY/WX    TMP DP  RH WIND       PRES   REMARKS
ABERDEEN       MOCLDY    77  71  82 SE8       29.76F
WATERTOWN      PTCLDY    76  71  85 SE8       29.82F
BROOKINGS      MOCLDY    75  70  83 SE10      29.84F
$$

SDZ017-020-022-023-036>040-048>070-040500-
SOUTHEAST SOUTH DAKOTA

CITY           SKY/WX    TMP DP  RH WIND       PRES   REMARKS
SIOUX FALLS    MOCLDY    79  72  79 SE9       29.81F
HURON          MOCLDY    77  72  84 SE12      29.74F
CHAMBERLAIN    CLOUDY    76  71  84 SE9       29.73F
MITCHELL       MOCLDY    77  73  87 SE8       29.76S
YANKTON        CLOUDY    75  72  88 E8        29.77S
$$

ABBREVIATIONS USED IN REMARKS
   TC - TEMPERATURE IN CELSIUS
  WCI - WIND CHILL INDEX
   HX - HEAT INDEX
  VSB - VISIBILITY




USA.gov is the U.S. government's official web portal to all federal, state and local government web resources and services.